Miscellaneous Local Product
Issued by NWS North Platte, NE

Home | Current Version | Previous Version | Text Only | Print | Product List | Glossary On
Versions: 1 2 3 4 5 6 7 8 9 10 11 12 13 14 15 16 17 18 19 20 21 22 23 24 25 26 27 28 29 30 31 32 33 34 35 36 37 38 39 40 41 42 43 44 45 46 47 48 49 50
000
AXUS43 KLBF 201410
MISLBF


WESTERN AND NORTH CENTRAL NEBRASKA HOURLY WEATHER ROUNDUP
NATIONAL WEATHER SERVICE NORTH PLATTE NE
900 AM CDT MON OCT 20 2014

***STATIONS NOT REPORTING VARIABLES SUCH AS SKY/WEATHER OR
PRESSURE ARE PROVIDED BY THE NEBRASKA DEPARTMENT OF
ROADS...RAWS...AND APRS NETWORKS...AND ARE NOT UNDER
NATIONAL WEATHER SERVICE QUALITY CONTROL***

...OBSERVATIONS IN AND NEAR THE EASTERN PANHANDLE OF NEBRASKA...

CITY           SKY/WX    TMP DP  RH WIND       PRES   REMARKS
PINE RIDGE     CLEAR     40  36  86 CALM      30.08R
CHADRON        CLEAR     34  32  92 W5        30.07R WCI  30
ALLIANCE       CLEAR     33  30  88 W3        30.12R
SIDNEY         CLEAR     43  38  82 SW7       30.14R
WHITECLAY        N/A     42  35  75 SE9         N/A
RUSHVILLE        N/A     35  34  94 SW10        N/A  WCI  28
CRESCENT LAKE    N/A     45  39  80 CALM        N/A
LISCO            N/A     37  32  82 CALM        N/A
BIG SPRINGS      N/A     36  34  91 SW3         N/A
LEWELLEN         N/A     36  34  92 CALM        N/A
$$

...OBSERVATIONS IN NORTH CENTRAL NEBRASKA...

CITY           SKY/WX    TMP DP  RH WIND       PRES   REMARKS
VALENTINE      PTCLDY    37  33  85 SW3       30.12R
THEDFORD       PTCLDY    40  37  90 W3        30.14R
AINSWORTH      CLEAR     40  37  87 CALM      30.12R
O`NEILL        MOSUNNY   43  40  88 N3        30.12R
ORD            SUNNY     43  38  82 CALM      30.11R
BROKEN BOW     SUNNY     41  36  82 CALM      30.12R
BROWNLEE         N/A     52  39  61 CALM        N/A
SPRINGVIEW       N/A     37  34  90 CALM        N/A
BREWSTER         N/A     40  37  89 NW3         N/A
ROSE             N/A     53  41  64 MISG        N/A
NEWPORT          N/A     41  37  87 CALM        N/A
SARGENT          N/A     41  38  87 CALM        N/A
COMSTOCK         N/A     48  40  72 CALM        N/A
CHAMBERS         N/A     44  39  84 CALM        N/A
$$

...OBSERVATIONS IN SOUTHWEST NEBRASKA AND FAR NORTHEAST COLORADO...

CITY           SKY/WX    TMP DP  RH WIND       PRES   REMARKS
WRAY           FAIR      40  37  87 SW7       30.15R
HOLYOKE        FAIR      41  36  81 CALM      30.14S
IMPERIAL       CLEAR     41  35  79 W3        30.14R
OGALLALA       CLEAR     36  34  93 W5        30.14R WCI  32
NORTH PLATTE   PTCLDY    37  34  89 W3        30.13R
MCCOOK         SUNNY     43  40  89 W6        30.13R
LEXINGTON      MOSUNNY   42  39  89 NW5       30.13R
PAXTON           N/A     39  35  86 CALM        N/A
SUTHERLAND       N/A     36  34  93 W5          N/A  WCI  32
BRADY            N/A     37  34  88 CALM        N/A
GOTHENBURG       N/A     40  34  80 CALM        N/A
CALLAWAY         N/A     36  33  90 CALM        N/A
$$

...SOME WEATHER OBSERVATIONS FROM AROUND THE REGION...

CITY           SKY/WX    TMP DP  RH WIND       PRES   REMARKS
DENVER         CLEAR     50  36  58 SW14      30.17R
LARAMIE        CLEAR     35  29  78 S8        30.22R WCI  29
CHEYENNE       PTCLDY    40  33  76 W7        30.18R
SCOTTSBLUFF    CLEAR     39  36  89 E3        30.12R
RAPID CITY     CLEAR     42  37  82 SE7       30.04S
PIERRE         PTCLDY    37  33  85 CALM      30.09R
WINNER         FAIR      45  36  70 SE3       30.11R
SIOUX FALLS    SUNNY     44  40  85 CALM      30.09R
OMAHA          SUNNY     48  43  82 N6        30.09R
GRAND ISLAND   SUNNY     45  40  82 W3        30.11R
KANSAS CITY    MOSUNNY   56  52  86 NW6       30.04R
WICHITA        SUNNY     59  55  87 CALM      30.06R
HAYS           SUNNY     48  43  81 NW5       30.11R
LIBERAL        SUNNY     52  45  76 NW7       30.13R
GOODLAND       CLEAR     46  42  86 W5        30.16R
$$



USA.gov is the U.S. government's official web portal to all federal, state and local government web resources and services.